This is the latest recevied weather packets stored in our database for station/object CE3TDM-12. If no packets are shown the sender has not sent any weather packets the latest 10 day(s).
| Time | Temp. | Humidity | Pressure | Rain* | Wind** | Luminosity | Snow |
|---|---|---|---|---|---|---|---|
| 1777520467 | 11.67° C | 37% | 776.7 hPa | - | - | - | - |
| 1777520166 | 11.67° C | 36% | 776.7 hPa | - | - | - | - |
| 1777519866 | 11.67° C | 36% | 776.7 hPa | - | - | - | - |
| 1777519563 | 11.67° C | 36% | 776.7 hPa | - | - | - | - |
| 1777519258 | 11.67° C | 36% | 776.7 hPa | - | - | - | - |
| 1777518958 | 11.67° C | 37% | 776.9 hPa | - | - | - | - |
| 1777518656 | 11.67° C | 37% | 776.8 hPa | - | - | - | - |
| 1777518355 | 11.11° C | 37% | 776.8 hPa | - | - | - | - |
| 1777518054 | 11.11° C | 37% | 776.9 hPa | - | - | - | - |
| 1777517753 | 11.11° C | 37% | 776.9 hPa | - | - | - | - |
| 1777513302 | 12.22° C | 36% | 777.3 hPa | - | - | - | - |
| 1777513001 | 12.22° C | 37% | 777.3 hPa | - | - | - | - |
| 1777512701 | 12.22° C | 37% | 777.3 hPa | - | - | - | - |
| 1777512400 | 12.22° C | 37% | 777.3 hPa | - | - | - | - |
| 1777512100 | 11.67° C | 37% | 777.3 hPa | - | - | - | - |
| 1777511799 | 11.67° C | 37% | 777.4 hPa | - | - | - | - |
| 1777511498 | 11.67° C | 37% | 777.4 hPa | - | - | - | - |
| 1777511194 | 11.67° C | 37% | 777.4 hPa | - | - | - | - |
| 1777510894 | 11.11° C | 37% | 776.5 hPa | - | - | - | - |
| 1777510593 | 11.67° C | 38% | 777.4 hPa | - | - | - | - |
| 1777508359 | 12.22° C | 38% | 776.9 hPa | - | - | - | - |
| 1777508058 | 12.78° C | 38% | 777.4 hPa | - | - | - | - |
| 1777505595 | 14.44° C | 37% | 777.5 hPa | - | - | - | - |
| 1777505292 | 14.44° C | 37% | 777.4 hPa | - | - | - | - |
| 1777504989 | 14.44° C | 37% | 777.3 hPa | - | - | - | - |
* Rain since midnight (hover to see other rain measurements)
** Current wind speed in m/s (hover to see current wind gust speed)